Wind_Speed
20 21 21 25 29 31 34 33 32 30 30 30 30 34 33 32 34 36 38 40 41 45 46 48 50 53 56 58 59 59 60 60 60 59 60 60 59 56 55 53 50 51 52 54
22 24 26 29 32 35 37 35 34 33 29 31 30 31 33 31 33 36 38 40 43 45 47 48 49 51 54 57 60 61 61 59 58 60 61 61 61 60 58 56 55 53 52 49
25 27 30 33 36 37 39 38 35 35 30 32 33 31 33 30 32 36 40 43 46 47 48 49 50 51 53 54 55 59 61 61 58 57 58 60 61 61 61 61 59 56 55 54
28 29 32 35 38 39 41 39 38 36 36 34 33 34 34 35 37 42 44 45 47 48 48 50 50 49 47 48 50 51 54 55 58 58 58 59 59 60 62 63 63 63 62 60
34 33 36 38 40 42 41 39 38 36 36 38 36 35 33 42 41 45 46 48 50 50 50 48 47 46 46 45 44 42 43 47 49 49 51 57 60 60 59 61 63 64 65 65
36 39 40 42 43 42 41 38 36 37 37 38 40 40 38 41 46 46 49 50 49 47 46 43 45 46 43 42 41 37 36 36 36 40 39 41 51 58 62 60 61 61 63 66
41 42 42 42 43 42 37 35 36 37 40 39 44 44 43 46 45 45 46 46 46 42 39 44 44 36 37 41 42 41 39 36 35 37 39 38 37 46 55 62 61 60 58 60
41 43 44 44 41 38 34 34 36 41 40 42 41 48 44 49 46 44 45 40 36 36 42 42 37 35 37 35 37 42 41 38 35 37 40 39 35 35 38 48 58 58 57 55
44 44 45 43 38 34 35 35 36 41 43 45 44 40 52 53 56 40 43 41 38 40 37 37 38 36 37 41 39 36 38 41 38 31 37 37 37 33 34 40 42 47 49 47
45 46 43 40 34 33 35 38 42 43 47 48 47 43 36 31 41 37 39 41 43 43 42 42 37 37 39 40 38 37 36 39 40 35 29 34 33 35 34 34 34 34 35 37
44 43 40 38 36 35 40 45 46 46 45 47 50 48 32 36 38 41 43 48 43 45 45 41 38 40 40 36 36 34 32 36 39 38 34 32 34 36 35 32 33 35 36 36
41 40 36 35 35 38 42 44 45 46 44 47 43 50 42 40 42 32 37 48 44 41 42 44 42 39 40 36 37 37 31 32 37 41 39 36 35 37 34 31 33 29 29 29
38 38 41 41 44 47 48 48 50 50 48 46 48 49 39 37 40 48 53 50 47 43 43 43 42 40 38 35 36 37 34 32 34 38 38 35 37 35 33 30 33 37 36 39
38 40 43 45 45 45 47 48 47 46 44 45 47 48 44 42 40 44 41 41 41 43 42 41 41 39 37 36 36 38 33 33 33 38 36 35 36 38 37 34 35 37 43 42
41 44 47 48 47 50 52 51 48 46 44 42 42 41 39 42 42 40 38 37 37 39 39 40 40 39 38 38 38 38 34 32 32 34 35 38 40 39 44 44 42 40 41 37
46 47 48 49 50 53 53 48 46 42 38 36 36 38 37 38 36 37 38 39 40 39 39 38 38 38 35 36 37 38 35 32 33 32 32 35 37 38 39 40 41 38 35 31
48 50 52 52 51 50 48 37 39 36 32 31 34 34 34 32 32 34 36 38 41 41 41 42 42 41 38 35 36 36 32 31 31 29 33 32 32 32 33 41 40 36 31 28
51 53 53 51 49 47 32 36 34 28 23 26 27 26 29 33 36 38 38 43 42 44 45 42 40 38 37 36 35 34 32 29 30 28 30 29 29 28 29 36 39 37 30 29
52 51 50 48 47 42 31 33 27 26 20 30 27 33 36 37 36 30 40 41 41 40 40 42 41 40 37 35 33 33 32 32 32 28 29 28 26 25 26 33 36 38 31 29
49 47 47 45 34 36 29 25 26 27 30 30 37 37 42 43 42 33 38 40 40 41 42 42 40 39 39 39 35 33 33 34 31 25 27 25 23 24 26 31 35 37 31 28
45 44 42 39 30 26 26 27 27 30 33 35 40 42 48 47 45 44 41 38 42 42 40 41 38 35 36 36 34 30 32 30 26 23 22 20 20 22 25 28 33 36 32 30
43 42 39 31 24 20 27 29 32 34 36 43 46 47 50 45 41 35 39 39 38 37 35 32 30 26 22 22 21 20 21 22 21 22 21 19 18 15 22 25 33 37 34 31
39 37 33 27 24 27 28 33 34 37 41 43 48 46 47 43 42 43 34 29 29 26 23 21 17 16 14 13 10 13 16 18 21 23 24 22 22 19 20 24 33 37 35 32
37 33 29 24 24 29 29 28 32 35 41 45 48 49 45 46 40 29 27 30 29 26 19 14 13 15 14 12 13 15 17 20 21 23 26 27 27 22 19 24 32 36 33 26
31 29 26 25 27 28 24 28 33 39 44 49 48 47 48 37 29 27 28 27 20 13 11 15 17 19 21 21 23 24 24 25 24 22 26 28 28 24 22 25 28 32 29 21
26 26 26 25 29 28 30 34 40 44 48 49 49 47 40 37 33 28 23 17 14 14 18 21 23 22 20 21 24 26 28 31 30 26 26 29 29 25 26 24 26 28 23 14
Wind_Direction
316 315 317 318 318 317 315 316 312 306 297 294 291 288 286 280 276 278 281 281 281 284 284 283 281 279 278 277 275 273 271 268 265 261 257 255 254 252 253 252 246 244 244 247
313 309 309 312 315 316 315 312 308 305 300 298 296 292 287 286 283 283 286 287 288 288 286 286 286 283 280 276 273 271 270 268 265 261 259 256 254 252 249 249 247 244 243 245
308 306 308 309 313 314 315 311 303 301 299 301 300 297 291 288 285 288 292 294 295 294 294 293 290 286 281 277 273 270 266 266 264 261 257 254 252 252 250 248 246 246 248 247
298 303 308 312 314 314 312 310 302 300 300 302 306 301 301 299 304 304 302 298 297 296 296 295 292 289 283 276 272 269 267 264 263 259 254 251 249 247 247 248 247 245 246 248
302 309 310 311 313 312 308 305 299 297 300 301 304 299 306 305 306 306 304 301 301 300 297 293 289 285 280 277 273 270 267 267 266 265 260 252 247 246 245 245 245 245 245 246
305 306 307 310 311 311 307 301 299 297 298 303 300 303 304 308 308 307 304 302 299 297 294 290 285 288 287 282 269 275 272 265 271 264 265 260 251 246 244 243 243 243 241 241
306 305 307 309 311 310 304 301 299 302 306 308 303 302 309 306 306 305 301 296 297 294 289 284 290 294 284 276 274 274 272 269 270 254 255 267 266 251 247 243 242 243 243 242
303 305 309 311 309 306 300 299 302 300 302 301 302 306 305 307 305 300 297 295 289 285 282 286 282 285 275 281 279 272 271 268 267 252 247 253 257 253 254 250 245 243 243 244
303 305 309 311 308 305 301 299 303 302 302 303 308 307 308 309 304 306 295 288 282 275 279 283 286 282 274 268 277 278 265 261 262 263 255 247 245 253 251 246 245 243 244 244
304 304 307 307 306 300 299 301 306 306 306 305 305 297 303 284 286 298 295 290 287 285 283 283 289 284 284 268 269 273 267 255 253 261 264 238 242 248 250 240 233 232 232 235
303 306 311 310 310 309 308 308 307 306 308 305 303 305 294 295 294 293 290 289 288 285 287 287 287 286 282 267 263 267 268 259 254 253 256 257 247 246 243 240 239 240 240 241
307 310 312 311 307 306 306 308 306 306 306 299 291 301 298 295 294 277 297 295 293 289 287 288 288 284 281 269 265 266 271 263 255 253 250 251 251 245 239 241 238 223 229 249
312 316 313 312 313 314 311 311 311 310 307 299 293 300 295 291 287 284 287 288 288 289 290 289 288 286 280 270 262 260 264 265 262 256 253 249 243 238 239 241 237 233 250 259
312 313 313 310 310 308 306 307 308 301 297 295 292 294 292 293 289 288 288 287 291 292 288 286 286 285 281 272 263 258 265 270 261 256 256 245 242 235 229 237 248 244 248 254
310 310 309 310 310 307 306 307 305 298 296 289 295 291 292 289 290 292 291 293 290 288 286 286 286 283 281 273 263 260 265 268 257 253 249 247 246 242 236 241 248 243 242 246
311 311 309 310 309 309 309 311 306 305 305 300 294 290 291 290 296 294 295 295 290 289 286 287 288 287 282 270 259 264 269 266 261 255 248 245 244 244 241 238 236 239 242 241
311 312 311 312 312 312 316 313 303 308 310 311 306 299 295 297 299 301 300 294 289 288 288 287 286 284 281 269 268 271 266 263 260 258 255 250 237 234 237 233 229 232 234 232
315 315 314 314 315 317 309 305 304 309 314 311 318 318 311 307 303 301 300 295 292 291 290 288 286 283 277 273 271 268 265 261 261 261 254 238 228 230 229 228 223 225 229 231
316 316 315 318 317 320 326 311 312 306 309 307 309 313 314 311 307 310 303 299 299 296 293 289 285 284 283 278 271 267 266 264 263 259 245 230 225 226 223 223 219 221 224 227
317 317 320 320 315 319 316 315 313 304 310 313 318 320 321 319 315 313 305 303 302 298 292 285 282 283 280 275 270 264 261 262 263 246 227 225 225 221 221 222 218 218 220 220
321 318 319 320 318 321 313 320 321 317 314 316 317 318 320 320 317 316 312 309 302 295 291 292 293 287 277 274 270 264 254 253 245 217 213 210 218 221 220 221 216 214 216 217
319 320 321 323 326 317 317 322 320 315 317 320 320 322 319 318 316 315 310 303 299 299 298 299 300 298 290 278 271 251 238 234 218 203 196 197 203 212 214 217 211 210 214 209
320 320 320 321 323 321 323 319 319 319 323 324 322 323 319 323 322 318 313 307 305 304 301 297 298 301 299 293 260 231 227 216 212 199 200 206 210 225 219 213 208 208 212 211
318 320 319 323 322 326 321 323 324 326 326 329 327 326 325 323 320 317 315 313 310 303 298 285 294 293 285 269 252 244 232 219 213 207 204 208 210 218 222 208 206 207 210 217
318 316 319 322 319 320 326 327 327 330 329 331 328 329 328 326 325 321 318 319 319 311 294 296 287 290 283 274 260 246 238 228 220 218 206 200 203 211 215 208 204 203 207 222
309 313 317 321 322 328 330 329 329 331 332 331 332 332 333 332 325 320 321 326 324 317 310 303 298 291 280 271 258 244 232 224 221 215 197 193 202 209 202 199 196 194 200 208
Height
5845 5844 5842 5839 5837 5834 5830 5828 5824 5821 5816 5814 5811 5806 5803 5801 5797 5794 5791 5788 5786 5783 5781 5779 5777 5775 5774 5772 5771 5771 5771 5773 5776 5779 5783 5786 5789 5794 5797 5801 5805 5807 5810 5814
5841 5839 5837 5834 5830 5827 5823 5819 5815 5811 5808 5804 5802 5799 5794 5793 5789 5786 5783 5779 5777 5773 5769 5767 5764 5762 5760 5758 5756 5755 5755 5756 5759 5762 5766 5770 5775 5779 5783 5787 5791 5795 5799 5803
5836 5834 5831 5827 5822 5819 5814 5810 5806 5802 5800 5795 5791 5790 5785 5784 5781 5778 5774 5769 5764 5760 5756 5752 5750 5747 5745 5742 5740 5739 5739 5739 5742 5745 5749 5753 5758 5764 5768 5773 5778 5782 5784 5788
5831 5829 5825 5820 5815 5811 5806 5801 5796 5792 5788 5786 5782 5778 5776 5771 5769 5765 5761 5757 5752 5748 5744 5739 5735 5732 5730 5727 5726 5725 5723 5724 5726 5729 5732 5736 5741 5747 5751 5756 5762 5766 5771 5775
5823 5820 5816 5811 5807 5802 5797 5792 5787 5783 5779 5775 5774 5770 5764 5760 5757 5752 5748 5743 5739 5734 5731 5727 5723 5720 5717 5715 5714 5713 5712 5712 5712 5713 5717 5720 5724 5730 5736 5741 5746 5752 5757 5762
5815 5811 5807 5802 5797 5792 5786 5782 5778 5774 5770 5767 5761 5759 5760 5753 5746 5740 5734 5730 5725 5721 5717 5714 5711 5708 5707 5704 5704 5704 5703 5702 5701 5701 5703 5706 5709 5713 5720 5725 5731 5736 5741 5747
5806 5802 5798 5792 5786 5781 5777 5773 5769 5767 5760 5759 5751 5748 5747 5741 5736 5729 5723 5718 5714 5711 5707 5703 5699 5697 5695 5693 5691 5691 5692 5692 5691 5692 5693 5694 5696 5699 5704 5710 5715 5721 5728 5734
5799 5794 5789 5783 5777 5773 5769 5765 5761 5755 5754 5751 5747 5738 5735 5728 5724 5718 5711 5708 5705 5701 5697 5694 5691 5688 5686 5683 5681 5680 5680 5681 5681 5681 5683 5685 5686 5689 5692 5697 5703 5708 5715 5720
5789 5785 5780 5774 5768 5764 5759 5757 5753 5746 5744 5738 5737 5729 5719 5712 5706 5706 5700 5696 5694 5691 5688 5684 5681 5677 5675 5673 5672 5670 5670 5670 5670 5672 5673 5675 5677 5680 5683 5686 5692 5697 5703 5708
5779 5775 5772 5766 5761 5756 5752 5746 5741 5734 5729 5726 5726 5721 5716 5711 5701 5695 5689 5684 5681 5678 5675 5672 5670 5666 5663 5662 5660 5659 5658 5659 5660 5661 5662 5665 5668 5671 5674 5677 5682 5687 5691 5696
5769 5766 5763 5755 5750 5746 5740 5733 5728 5725 5721 5711 5706 5710 5707 5696 5691 5684 5678 5671 5669 5666 5663 5660 5658 5655 5651 5650 5650 5649 5648 5647 5648 5650 5653 5655 5658 5661 5664 5668 5672 5676 5681 5687
5760 5755 5752 5748 5743 5739 5732 5725 5720 5713 5711 5701 5694 5690 5693 5684 5676 5673 5664 5660 5657 5653 5650 5647 5644 5642 5639 5639 5639 5638 5638 5637 5638 5639 5642 5646 5648 5651 5655 5659 5664 5668 5674 5679
5751 5747 5741 5739 5730 5725 5718 5713 5705 5699 5693 5688 5681 5677 5677 5672 5665 5660 5656 5650 5645 5642 5638 5634 5632 5630 5627 5626 5627 5627 5627 5627 5627 5629 5631 5635 5638 5641 5646 5650 5656 5661 5664 5668
5743 5739 5733 5729 5726 5716 5710 5704 5697 5687 5681 5675 5671 5663 5663 5657 5652 5647 5643 5639 5635 5630 5626 5622 5621 5619 5617 5615 5614 5615 5615 5615 5616 5618 5620 5623 5627 5632 5636 5641 5646 5651 5654 5657
5737 5732 5724 5718 5713 5705 5698 5692 5686 5675 5669 5661 5658 5653 5650 5644 5640 5634 5631 5627 5622 5617 5614 5612 5609 5608 5606 5604 5603 5603 5604 5604 5605 5607 5610 5611 5615 5620 5625 5630 5633 5638 5643 5646
5727 5721 5714 5709 5701 5692 5684 5678 5668 5663 5658 5651 5647 5643 5637 5633 5629 5624 5619 5616 5611 5607 5604 5601 5598 5596 5596 5593 5591 5593 5593 5594 5594 5597 5599 5601 5604 5608 5613 5618 5623 5628 5632 5636
5717 5709 5701 5696 5689 5679 5673 5665 5658 5654 5648 5642 5637 5633 5628 5625 5620 5614 5610 5605 5599 5596 5593 5590 5587 5584 5583 5582 5581 5581 5582 5583 5584 5586 5587 5589 5593 5597 5601 5606 5613 5619 5624 5628
5705 5697 5689 5682 5676 5672 5664 5653 5649 5645 5641 5635 5630 5625 5620 5615 5612 5607 5600 5591 5589 5585 5581 5578 5575 5573 5571 5570 5570 5569 5570 5572 5573 5575 5576 5580 5585 5589 5593 5596 5603 5611 5617 5621
5693 5685 5677 5671 5664 5658 5654 5645 5642 5637 5637 5629 5624 5619 5613 5606 5600 5600 5587 5581 5575 5571 5568 5564 5563 5562 5560 5558 5558 5558 5559 5560 5563 5564 5566 5571 5576 5582 5585 5589 5596 5604 5610 5615
5684 5675 5668 5661 5654 5650 5645 5640 5636 5630 5627 5621 5615 5609 5602 5594 5586 5586 5577 5570 5565 5559 5553 5550 5551 5549 5547 5545 5545 5547 5547 5549 5550 5554 5558 5565 5570 5575 5579 5583 5590 5597 5604 5610
5673 5666 5660 5653 5647 5645 5638 5633 5628 5624 5622 5614 5606 5600 5592 5584 5577 5568 5563 5558 5550 5546 5541 5538 5536 5535 5531 5529 5530 5532 5534 5538 5541 5547 5553 5559 5564 5569 5574 5578 5584 5592 5599 5605
5665 5658 5652 5647 5643 5640 5634 5628 5623 5618 5614 5604 5597 5590 5580 5575 5569 5563 5556 5548 5540 5535 5530 5526 5523 5520 5518 5518 5519 5522 5525 5529 5536 5542 5548 5554 5560 5564 5568 5573 5579 5587 5593 5600
5658 5652 5647 5643 5638 5634 5630 5623 5617 5611 5604 5597 5588 5581 5572 5564 5558 5549 5543 5538 5534 5528 5524 5520 5518 5515 5515 5514 5515 5517 5520 5525 5530 5538 5544 5550 5555 5559 5563 5568 5574 5581 5588 5595
5650 5646 5641 5637 5634 5629 5623 5618 5612 5606 5598 5591 5581 5571 5563 5554 5547 5541 5534 5528 5523 5519 5518 5516 5514 5513 5512 5512 5512 5513 5516 5520 5525 5532 5539 5544 5550 5554 5559 5563 5569 5577 5585 5592
5645 5640 5636 5633 5629 5624 5620 5613 5607 5600 5592 5583 5574 5562 5554 5545 5539 5533 5528 5522 5516 5514 5513 5512 5510 5508 5505 5505 5505 5507 5510 5515 5520 5526 5534 5539 5545 5551 5556 5560 5568 5576 5583 5588
5640 5635 5631 5627 5623 5617 5612 5606 5600 5592 5583 5574 5563 5555 5546 5538 5532 5526 5522 5518 5514 5512 5509 5505 5501 5498 5495 5493 5493 5496 5500 5506 5513 5522 5530 5536 5542 5548 5553 5560 5567 5576 5581 5584